[[{"header":{"parameterUnit":"m.s-1","parameterCategory":1,"la1":30.2991,"la2":30.254,"lo1":-89.0895,"lo2":-89.0444,"dy":0.0017,"dx":0.0017,"nx":28,"ny":28,"refTime":"2025-07-12T09:00:00:Z","depth":0,"parameterNumber":2,"parameterNumberName":"U-component_of_WINDS"},"data":[0,0,0,0,0,0,0,0,0,0,0,0,0,0,0,0,0,0,0,0,0,0,0,0,0,0,0,0,0,0,0,0,0,0,0,0,0,0,0,0,0,0,0,0,0,0,0,0,0,0,0,0,0,0,0,0,0,0,0.1595,0.1596,0,0.1665,0.1666,0.1666,0.1734,0.1735,0.1736,0.1737,0.1811,0.1812,0.1813,0,0,0,0,0,0,0,0,0,0,0,0,0,0.1523,0.1524,0.1595,0.1596,0.1597,0.1665,0.1666,0.1667,0.1734,0.1735,0.1736,0.1737,0.181,0.1812,0.1813,0,0,0,0,0,0,0,0,0,0,0,0,0,0.1569,0.1524,0.1595,0.1638,0.1643,0.1664,0.1666,0.1667,0.1734,0.1735,0.1736,0.1738,0.181,0.1812,0.1813,0.1798,0,0,0.1819,0.1819,0,0,0,0,0,0,0,0,0.1567,0.1572,0.1631,0.1635,0.1641,0.1692,0.1667,0.1711,0.1733,0.1699,0.1737,0.1738,0.177,0.1775,0.1786,0.1801,0.1805,0.1819,0.182,0.1821,0.1821,0,0,0,0,0,0,0,0.1563,0.157,0.1623,0.1632,0.1638,0.1655,0.1664,0.1676,0.1727,0.1702,0.1708,0.1715,0.1773,0.1784,0.1788,0.1806,0.1819,0.182,0.1821,0.1822,0.1813,0.1811,0,0,0,0,0,0,0.1553,0.1566,0.162,0.1625,0.1606,0.1656,0.1665,0.1674,0.1727,0.1736,0.1714,0.1718,0.178,0.1786,0.1791,0.1776,0.1821,0.1822,0.1823,0.1814,0.1812,0.1811,0,0,0,0,0,0,0.1551,0.1557,0.1618,0.1597,0.1606,0.1656,0.1666,0.1675,0.1686,0.1735,0.1745,0.1715,0.1782,0.1788,0.1796,0.178,0.1823,0.1825,0.1815,0.1813,0.1812,0.1746,0,0,0,0,0,0,0.1549,0.1556,0.155,0.1596,0.1607,0.162,0.1665,0.1675,0.1688,0.1694,0.1739,0.1748,0.1783,0.1793,0.1797,0.1783,0.1826,0.1817,0.1814,0.1812,0.175,0.1742,0.1736,0,0,0,0,0,0.1546,0.153,0.155,0.1556,0.16,0.1619,0.1625,0.1665,0.1687,0.1681,0.1713,0.1746,0.1781,0.1793,0.1799,0.1784,0.1818,0.1815,0.1812,0.1753,0.1744,0.1736,0,0,0,0,0,0,0.1481,0.1537,0.1559,0.1557,0.1582,0.163,0.1625,0.1654,0.1675,0.168,0.173,0.174,0.1741,0.1764,0.1776,0.1772,0.1804,0.1802,0.1757,0.1749,0.1742,0.1736,0.1827,0,0,0,0,0,0.1467,0.1476,0.1525,0.1518,0.153,0.1575,0.1585,0.1613,0.1642,0.1654,0.1686,0.1714,0.1731,0.1741,0.176,0.1754,0.1765,0.1747,0.174,0.1734,0.1732,0.173,0.1723,0.1801,0.1801,0.1801,0,0,0.1437,0.1468,0.1471,0.1506,0.1529,0.1539,0.1584,0.1592,0.16,0.1656,0.1664,0.1688,0.1723,0.1723,0.1725,0.1742,0.1712,0.173,0.1725,0.1726,0.1726,0.1719,0.1712,0.1799,0.18,0.18,0,0,0.1387,0.1411,0.1408,0.1431,0.1465,0.1495,0.1494,0.1538,0.1556,0.1565,0.1607,0.1618,0.1646,0.1669,0.1684,0.1643,0.1674,0.1647,0.161,0.1608,0.1602,0.1596,0.1581,0.1575,0.1645,0.1645,0.1645,0,0.1345,0.1361,0.1403,0.1409,0.1423,0.1473,0.1471,0.1491,0.153,0.1539,0.1557,0.1594,0.162,0.1627,0.1616,0.1627,0.1628,0.1642,0.1599,0.1594,0.159,0.1576,0.157,0.1641,0.1642,0.1642,0.1642,0,0.1308,0.1318,0.1312,0.1347,0.1361,0.1362,0.1406,0.1415,0.1442,0.1471,0.1479,0.1513,0.1539,0.1543,0.1571,0.1553,0.1563,0.1589,0.1622,0.1578,0.1566,0.1561,0.1636,0.1638,0.1639,0.1639,0,0,0.1218,0.1277,0.1274,0.1291,0.1333,0.1342,0.1346,0.1371,0.1377,0.1403,0.1408,0.143,0.1455,0.1472,0.1503,0.1501,0.1466,0.1529,0.153,0.1515,0.1449,0.1428,0.1421,0.1487,0.1487,0.1486,0.1446,0,0.1175,0.1185,0.1224,0.1222,0.1232,0.128,0.1284,0.131,0.1337,0.135,0.138,0.1395,0.1427,0.1438,0.1438,0.147,0.1453,0.1474,0.1493,0.1493,0.1482,0.1415,0.1393,0.1354,0.1442,0.1441,0.144,0,0.1126,0.1147,0.1146,0.1187,0.1193,0.1196,0.1221,0.1233,0.1265,0.1284,0.1303,0.1337,0.1345,0.1376,0.1388,0.1401,0.1411,0.1428,0.1428,0.143,0.1463,0.1416,0.1342,0.1336,0.1433,0.1434,0.1434,0,0.106,0.1089,0.1092,0.1105,0.1153,0.1154,0.1174,0.1207,0.1219,0.1242,0.1251,0.1274,0.1287,0.1305,0.1345,0.1364,0.1352,0.1387,0.1369,0.1368,0.1364,0.1364,0.1291,0.1372,0.1372,0.1372,0.1372,0,0.1008,0.1005,0.1063,0.1064,0.1063,0.1108,0.1106,0.1131,0.116,0.1168,0.1211,0.1218,0.1271,0.1284,0.1315,0.132,0.1326,0.1342,0.1351,0.1338,0.1336,0.1345,0.1349,0.137,0.1371,0.1371,0.1371,0,0.0934,0.0972,0.0978,0.1024,0.1035,0.1032,0.1071,0.1075,0.1105,0.1114,0.1119,0.1166,0.1184,0.1225,0.1254,0.1276,0.1272,0.1288,0.1261,0.1266,0.1246,0.1247,0.1176,0.1169,0.1254,0.1254,0.1253,0,0.0897,0.0896,0.0941,0.0949,0.0967,0.098,0.0992,0.1037,0.1049,0.1084,0.1084,0.1105,0.1124,0.115,0.1187,0.1209,0.1225,0.1199,0.1229,0.1216,0.1225,0.1224,0.1224,0.1192,0.1191,0.119,0.1189,0,0.0828,0.0847,0.0863,0.0886,0.0899,0.0919,0.0942,0.0947,0.0997,0.1008,0.1026,0.1041,0.107,0.109,0.1118,0.114,0.1173,0.1179,0.1177,0.1163,0.1148,0.1155,0.1242,0.1181,0.1182,0.1182,0.1183,0.1183,0.0771,0.0773,0.0804,0.0821,0.0842,0.0863,0.0868,0.0898,0.0914,0.094,0.0966,0.0982,0.1014,0.1054,0.1074,0.1088,0.1104,0.11,0.1099,0.1097,0.1091,0.1146,0.1093,0.1093,0.1094,0.1094,0.1094,0,0.0704,0.0727,0.0741,0.0771,0.0784,0.0814,0.084,0.0849,0.0862,0.0889,0.0906,0.0927,0.0947,0.0985,0.1009,0.1012,0.1028,0.1017,0.1017,0.1021,0.1075,0.1075,0.1004,0.1004,0.1004,0.1004,0.1004,0.1004,0.067,0.0674,0.0697,0.0712,0.0735,0.0749,0.0762,0.0781,0.0803,0.0824,0.084,0.0865,0.0896,0.0922,0.0942,0.0953,0.0959,0.0943,0.0959,0.1009,0.1017,0.1025,0.1026,0.0944,0.0944,0.0904,0.0903,0.0903]},{"header":{"parameterUnit":"m.s-1","parameterCategory":1,"la1":30.2991,"la2":30.254,"lo1":-89.0895,"lo2":-89.0444,"dy":0.0017,"dx":0.0017,"nx":28,"ny":28,"refTime":"2025-07-12T09:00:00:Z","depth":0,"parameterNumber":3,"parameterNumberName":"V-component_of_WINDS"},"data":[0,0,0,0,0,0,0,0,0,0,0,0,0,0,0,0,0,0,0,0,0,0,0,0,0,0,0,0,0,0,0,0,0,0,0,0,0,0,0,0,0,0,0,0,0,0,0,0,0,0,0,0,0,0,0,0,0,0,2.3559,2.3558,0,2.3505,2.3504,2.3503,2.3517,2.3518,2.3519,2.352,2.346,2.3457,2.3455,0,0,0,0,0,0,0,0,0,0,0,0,0,2.367,2.3668,2.3559,2.3558,2.3558,2.3505,2.3504,2.3503,2.3517,2.3518,2.3519,2.3521,2.3461,2.3458,2.3454,0,0,0,0,0,0,0,0,0,0,0,0,0,2.3619,2.3668,2.3559,2.3558,2.3558,2.3505,2.3504,2.3503,2.3517,2.3518,2.352,2.3521,2.3462,2.3458,2.3454,2.3397,0,0,2.3442,2.344,0,0,0,0,0,0,0,0,2.3622,2.3615,2.3559,2.3558,2.3557,2.3519,2.3521,2.3467,2.3516,2.3532,2.352,2.3522,2.3478,2.3473,2.3459,2.3394,2.3392,2.3442,2.3439,2.3438,2.3436,0,0,0,0,0,0,0,2.3626,2.3618,2.3537,2.3558,2.3557,2.3559,2.3554,2.3511,2.3496,2.3531,2.3532,2.3525,2.3478,2.3463,2.3458,2.3391,2.3442,2.3438,2.3436,2.3434,2.3276,2.3274,0,0,0,0,0,0,2.3631,2.3621,2.3539,2.3536,2.3595,2.3556,2.355,2.353,2.3497,2.3494,2.3524,2.3526,2.3469,2.3462,2.3455,2.3385,2.3438,2.3434,2.3432,2.3277,2.3275,2.3273,0,0,0,0,0,0,2.3633,2.3623,2.3541,2.3578,2.3568,2.3552,2.353,2.3528,2.3513,2.3492,2.3489,2.3511,2.347,2.3461,2.3412,2.3384,2.3432,2.3429,2.328,2.3277,2.3274,2.3246,0,0,0,0,0,0,2.3636,2.3624,2.3603,2.3578,2.3566,2.3499,2.3528,2.3526,2.3507,2.3509,2.3479,2.3476,2.347,2.3417,2.3408,2.3379,2.3425,2.3282,2.3278,2.3275,2.3249,2.3242,2.3237,0,0,0,0,0,2.364,2.3597,2.3602,2.3592,2.354,2.3498,2.3491,2.3487,2.3504,2.3482,2.3469,2.3477,2.3389,2.3412,2.3401,2.3371,2.3284,2.3279,2.3275,2.3252,2.3244,2.3237,0,0,0,0,0,0,2.3618,2.3593,2.3599,2.3547,2.3524,2.35,2.3473,2.3478,2.3449,2.3453,2.3447,2.344,2.3389,2.3376,2.3402,2.3314,2.3338,2.3332,2.3324,2.3316,2.331,2.3314,2.3422,0,0,0,0,0,2.3607,2.3576,2.3556,2.3512,2.3501,2.3489,2.347,2.3469,2.3445,2.3435,2.3418,2.3393,2.336,2.3338,2.3306,2.3248,2.324,2.3222,2.3216,2.3211,2.3204,2.3171,2.3162,2.3259,2.3259,2.3259,0,0,2.3584,2.3567,2.3547,2.3507,2.3489,2.3456,2.348,2.3444,2.3419,2.3429,2.3381,2.3368,2.334,2.3285,2.3261,2.3272,2.3176,2.3205,2.3201,2.3198,2.3165,2.3156,2.3148,2.3257,2.3257,2.3257,0,0,2.3524,2.3509,2.347,2.3452,2.3426,2.3419,2.3409,2.3384,2.3376,2.3329,2.3335,2.3305,2.3248,2.3227,2.3209,2.3142,2.3147,2.3132,2.3098,2.3066,2.3058,2.3051,2.3025,2.3016,2.3126,2.3126,2.3126,0,2.3498,2.345,2.3449,2.3412,2.3393,2.3403,2.3361,2.3344,2.3308,2.3294,2.3308,2.3237,2.3219,2.3159,2.3142,2.3128,2.3116,2.3134,2.3059,2.3052,2.3046,2.3021,2.3012,2.3124,2.3124,2.3124,2.3124,0,2.3418,2.3384,2.3355,2.3322,2.33,2.3261,2.3253,2.323,2.3231,2.3222,2.3172,2.3151,2.3115,2.3101,2.3101,2.304,2.3048,2.3061,2.3085,2.3035,2.3011,2.3002,2.3121,2.3122,2.3122,2.3123,0,0,2.3341,2.3308,2.3297,2.3282,2.3254,2.3227,2.3188,2.3154,2.3134,2.3109,2.3075,2.3027,2.3039,2.3018,2.3016,2.2988,2.2934,2.3004,2.3003,2.299,2.2864,2.2853,2.2842,2.2938,2.2937,2.2935,2.2865,0,2.3277,2.321,2.3208,2.3146,2.3114,2.3123,2.3089,2.3067,2.3057,2.3027,2.3016,2.2981,2.3,2.2987,2.296,2.2946,2.2908,2.2951,2.2904,2.2902,2.2909,2.283,2.2818,2.2753,2.2856,2.2855,2.2854,0,2.3194,2.3167,2.3102,2.3079,2.3065,2.3034,2.3002,2.2974,2.2949,2.2944,2.2922,2.2924,2.2882,2.291,2.2851,2.2881,2.2862,2.2852,2.2849,2.2843,2.2873,2.2819,2.2733,2.2722,2.284,2.2841,2.2842,0,2.3142,2.309,2.3044,2.3031,2.3002,2.298,2.2967,2.2944,2.2924,2.2896,2.2882,2.2849,2.283,2.2804,2.2796,2.2817,2.2737,2.2765,2.273,2.273,2.271,2.2711,2.2618,2.2702,2.2702,2.2702,2.2702,0,2.3069,2.3029,2.302,2.2992,2.2946,2.2944,2.2898,2.2886,2.2866,2.2834,2.284,2.2809,2.2803,2.277,2.2764,2.2716,2.2708,2.2701,2.2699,2.2699,2.2699,2.2684,2.2688,2.27,2.27,2.2701,2.2701,0,2.3002,2.2996,2.2946,2.2924,2.2917,2.2884,2.2864,2.2836,2.2827,2.2787,2.2777,2.2763,2.2725,2.2716,2.2671,2.2667,2.2609,2.2612,2.2617,2.2617,2.2581,2.2584,2.2473,2.2457,2.2554,2.2553,2.2552,0,2.2956,2.2925,2.2899,2.2879,2.2865,2.2833,2.2812,2.2809,2.2786,2.2756,2.2731,2.2694,2.2665,2.2604,2.2588,2.2554,2.2555,2.2519,2.255,2.255,2.2552,2.2553,2.2549,2.2512,2.2511,2.251,2.251,0,2.2873,2.2871,2.2842,2.2811,2.2786,2.2761,2.2738,2.272,2.2713,2.2688,2.265,2.2628,2.2582,2.2545,2.251,2.2495,2.25,2.25,2.249,2.2488,2.2491,2.2487,2.2599,2.2502,2.2503,2.2503,2.2504,2.2504,2.2813,2.2786,2.2763,2.273,2.2712,2.269,2.2662,2.265,2.262,2.2583,2.2583,2.2541,2.2516,2.247,2.2453,2.2419,2.243,2.2416,2.2412,2.2407,2.2403,2.2499,2.2413,2.2413,2.2414,2.2414,2.2414,0,2.2729,2.2715,2.2685,2.2652,2.2625,2.2635,2.2609,2.2586,2.2549,2.2527,2.2498,2.2454,2.2418,2.24,2.2364,2.2341,2.2342,2.2331,2.2331,2.2327,2.2397,2.2408,2.233,2.233,2.233,2.233,2.233,2.233,2.2681,2.2635,2.263,2.2574,2.2561,2.2521,2.2505,2.2484,2.2466,2.2417,2.2387,2.2377,2.2355,2.2318,2.2285,2.2281,2.2266,2.2253,2.225,2.2314,2.2323,2.2331,2.2341,2.2251,2.2251,2.2183,2.2182,2.2182]}]]